TimeCST,TemperatureF,Dew PointF,Humidity,Sea Level PressureIn,VisibilityMPH,Wind Direction,Wind SpeedMPH,Gust SpeedMPH,PrecipitationIn,Events,Conditions,WindDirDegrees,DateUTC
12:53 AM,61.0,59.0,93,29.66,1.0,SSE,20.7,-,0.00,,Light Drizzle,150,2013-02-10 06:53:00
1:53 AM,63.0,61.0,93,29.64,2.5,SSE,17.3,-,0.01,,Light Drizzle,150,2013-02-10 07:53:00
2:29 AM,66.0,62.1,87,29.64,8.0,South,21.9,28.8,0.00,Rain,Light Rain,180,2013-02-10 08:29:00
2:33 AM,66.0,62.1,87,29.65,8.0,South,20.7,34.5,0.00,Rain-Thunderstorm,Light Thunderstorms and Rain,180,2013-02-10 08:33:00
2:53 AM,62.1,57.0,84,29.70,0.8,West,31.1,49.5,0.02,Rain-Thunderstorm,Heavy Thunderstorms and Rain,270,2013-02-10 08:53:00
3:00 AM,57.9,55.0,90,29.73,0.8,SW,24.2,38.0,0.34,Rain-Thunderstorm,Heavy Thunderstorms and Rain,220,2013-02-10 09:00:00
3:11 AM,57.9,55.9,93,29.70,1.5,SW,16.1,-,0.71,Rain-Thunderstorm,Thunderstorms and Rain,220,2013-02-10 09:11:00
3:16 AM,59.0,57.0,93,29.70,3.0,SW,15.0,-,0.73,Rain-Thunderstorm,Thunderstorms and Rain,230,2013-02-10 09:16:00
3:30 AM,59.0,55.9,90,29.72,7.0,SSW,16.1,-,0.79,Rain-Thunderstorm,Light Thunderstorms and Rain,200,2013-02-10 09:30:00
3:53 AM,60.1,57.0,90,29.74,5.0,West,19.6,-,0.88,Rain-Thunderstorm,Light Thunderstorms and Rain,260,2013-02-10 09:53:00
4:21 AM,60.1,55.0,83,29.73,10.0,West,11.5,-,0.07,Rain,Light Rain,270,2013-02-10 10:21:00
4:53 AM,60.1,48.9,67,29.76,10.0,West,10.4,19.6,0.07,,Mostly Cloudy,280,2013-02-10 10:53:00
5:53 AM,55.0,41.0,59,29.78,10.0,WNW,12.7,-,N/A,,Overcast,300,2013-02-10 11:53:00
6:53 AM,55.0,37.0,51,29.79,10.0,WNW,9.2,-,N/A,,Mostly Cloudy,300,2013-02-10 12:53:00
7:53 AM,54.0,34.0,47,29.82,10.0,West,9.2,-,N/A,,Mostly Cloudy,280,2013-02-10 13:53:00
8:53 AM,55.9,30.0,37,29.84,10.0,West,11.5,-,N/A,,Mostly Cloudy,270,2013-02-10 14:53:00
9:53 AM,57.9,27.0,31,29.87,10.0,West,15.0,-,N/A,,Mostly Cloudy,270,2013-02-10 15:53:00
10:53 AM,59.0,26.1,28,29.86,10.0,West,15.0,-,N/A,,Mostly Cloudy,270,2013-02-10 16:53:00
11:53 AM,62.1,26.1,25,29.85,10.0,West,15.0,-,N/A,,Mostly Cloudy,280,2013-02-10 17:53:00
12:53 PM,64.0,21.9,20,29.84,10.0,WNW,16.1,-,N/A,,Mostly Cloudy,290,2013-02-10 18:53:00
1:53 PM,66.0,19.9,17,29.82,10.0,WNW,15.0,-,N/A,,Mostly Cloudy,290,2013-02-10 19:53:00
2:53 PM,66.9,23.0,19,29.82,10.0,West,9.2,-,N/A,,Mostly Cloudy,280,2013-02-10 20:53:00
3:53 PM,66.9,21.0,17,29.83,10.0,WNW,6.9,-,N/A,,Mostly Cloudy,290,2013-02-10 21:53:00
4:53 PM,66.0,19.9,17,29.85,10.0,West,8.1,-,N/A,,Mostly Cloudy,270,2013-02-10 22:53:00
5:53 PM,66.0,19.0,17,29.86,10.0,West,9.2,-,N/A,,Mostly Cloudy,280,2013-02-10 23:53:00
6:53 PM,61.0,21.0,21,29.90,10.0,WSW,6.9,-,N/A,,Scattered Clouds,240,2013-02-11 00:53:00
7:53 PM,60.1,21.0,22,29.93,10.0,WSW,4.6,-,N/A,,Scattered Clouds,240,2013-02-11 01:53:00
8:53 PM,57.0,26.1,30,29.96,10.0,Calm,Calm,-,N/A,,Scattered Clouds,0,2013-02-11 02:53:00
9:53 PM,53.1,26.1,35,29.96,10.0,Calm,Calm,-,N/A,,Scattered Clouds,0,2013-02-11 03:53:00
10:53 PM,52.0,28.9,41,29.99,10.0,Calm,Calm,-,N/A,,Scattered Clouds,0,2013-02-11 04:53:00
11:53 PM,50.0,35.1,57,30.00,10.0,North,9.2,-,N/A,,Mostly Cloudy,350,2013-02-11 05:53:00